Regional Weather Roundup
Issued by NWS Mobile, AL

Home | Current Version | Previous Version | Text Only | Print | Product List | Glossary On
Versions: 1 2 3 4 5 6 7 8 9 10 11 12 13 14 15 16 17 18 19 20 21 22 23 24 25 26 27 28 29 30 31 32 33 34 35 36 37 38 39 40 41 42 43 44 45 46 47 48 49 50
000
ASUS44 KMOB 300110
RWRMOB
REGIONAL WEATHER ROUNDUP
NATIONAL WEATHER SERVICE MOBILE AL
800 PM CDT FRI AUG 29 2014

NOTE: "FAIR" INDICATES FEW OR NO CLOUDS BELOW 12,000 FEET WITH NO
      SIGNIFICANT WEATHER AND/OR OBSTRUCTIONS TO VISIBILITY.

  * THESE STATIONS ARE PART OF THE UNIVERSITY OF SOUTH ALABAMA
    MESONET AND ARE NOT UNDER NWS OR FAA QUALITY CONTROL.

ALZ061>064-300200-
COASTAL ALABAMA

CITY           SKY/WX    TMP DP  RH WIND       PRES   REMARKS
MOBILE REG APT MOCLDY    79  74  84 S8        30.00R
BROOKLEY FIELD MOCLDY    80  76  87 CALM      30.00S
USA CAMPUS*      N/A     79  73  83 CALM      29.99R
DOG RIVER*       N/A     81  77  89 SW2       29.99S


CITY           SKY/WX    TMP DP  RH WIND       PRES   REMARKS
MOUNT VERNON*    N/A     81  73  78 CALM      29.99R
SARALAND*      NOT AVBL
BAY MINETTE*   NOT AVBL
LOXLEY*          N/A     75  73  94 S6        30.00R
ROBERTSDALE*     N/A    N/A N/A N/A SW2       29.99S
FAIRHOPE*        N/A     75  73  94 S6        29.99R
ELBERTA*         N/A     77  64  65 SW3       29.99R
FOLEY*         NOT AVBL
GRAND BAY*       N/A     77  75  94 SE2       29.98R
DAUPHIN ISLND* NOT AVBL
BON SCOUR NWR* NOT AVBL
GULF SHORES    CLOUDY    76  74  94 CALM      30.00R

$$

ALZ051>060-300200-
INTERIOR SOUTHWEST AND SOUTH CENTRAL ALABAMA

CITY           SKY/WX    TMP DP  RH WIND       PRES   REMARKS
GREENVILLE     CLOUDY    84  71  65 S6        30.00R
EVERGREEN      CLOUDY    84  75  74 S7        30.00R
CASTLEBERRY*   NOT AVBL
ATMORE*          N/A     77  75  94 S7        30.02R
DIXIE*         NOT AVBL
ANDALUSIA/OPP  CLOUDY    86  73  65 VRB5      30.02R
ANDALUSIA*       N/A     81  72  74 S8        30.00R
FLORALA APT    CLOUDY    82  73  74 S5        30.05R
FLORALA*         N/A     81  72  74 CALM      30.00R

$$

FLZ001>006-300200-
WESTERN FLORIDA PANHANDLE

CITY           SKY/WX    TMP DP  RH WIND       PRES   REMARKS
PENSACOLA      CLOUDY    77  73  87 W5        29.99R
NAS PENSACOLA  CLOUDY    77  76  96 SW5       29.99R
MILTON         CLOUDY    78  75  90 S3        30.01R
WHTNG S FIELD  CLOUDY    79  75  87 SW5       30.01R


CITY           SKY/WX    TMP DP  RH WIND       PRES   REMARKS
WALNUT HILL*   NOT AVBL
JAY*           NOT AVBL
DUKE FIELD     CLOUDY    82  77  86 SE5       30.03R
CRESTVIEW      CLOUDY    82  75  79 E3        30.04R
VALPARAISO     CLOUDY    83  76  81 S5        30.01R
DESTIN         MOCLDY    85  77  77 SE8       30.01R HX  95

$$

MSZ076-079-300200-
INTERIOR SOUTHEAST MISSISSIPPI

CITY           SKY/WX    TMP DP  RH WIND       PRES   REMARKS
LEAKESVILLE*   NOT AVBL
AGRICOLA*      NOT AVBL

$$

MARINE OBSERVATIONS

STATION/POSITION TIME  TEMP    WIND        PRES    WAVE
                       AIR SEA DIR/SP/G            HT/PER
                 (UTC) (F)     (DEG/KT/KT) (MB)    (FT/S)
PASCAGOULA       0100   81     140/  5/  7 1015.3S
PETIT BOIS ISLND 0100   80     120/  4/  6 1015.9R
GRAND BAY        0000   81     130/  4     1016.0S
KATRINA CUT      0000   82     140/  5     1015.9S
CEDAR POINT      0000   81     120/  3     1015.2R
E DAUPHIN ISLAND 0100   81     170/ 10/ 11 1016.1R
MIDDLE BAY LIGHT 0000   82     130/  8     1014.6F
USCG MOBILE BAY  0100   81 86  210/  3/  5 1014.5R
STATE DOCKS      0100   83 86              1015.2R
MEAHER PARK      0000   81     120/  6     1014.9R
WEEKS BAY        0000   76                   N/A
FORT MORGAN      0100   80     210/ 14/ 16 1015.7R
12 S ORANGE BCH  0100   81 85  170/  2/  2 1016.2R   3/ 6
PENSACOLA BAY    0100   81 86  310/  3/  4 1015.7R
64 S DAUPHIN ISL 0007   80 84  210/  2/  4 1016.1

$$

SELECTED LOCATIONS ACROSS THE REGION

CITY           SKY/WX    TMP DP  RH WIND       PRES   REMARKS
NEW ORLEANS    CLOUDY    79  75  87 SE8       29.94S
GULFPORT       CLOUDY    78  75  90 E5        29.97F
PASCAGOULA AP  CLOUDY    77  75  93 CALM      29.99R
PASCAGOULA*      N/A     77  77 100 CALM      29.99R
HATTIESBURG    CLOUDY    77  73  87 SE3       29.98S
LAUREL         CLOUDY    73  72  94 SE5       29.99R
MERIDIAN       MOCLDY    84  69  60 SE3       29.96R
JACKSON        MOCLDY    82  71  69 SE8       29.95R
MONTGOMERY     MOCLDY    85  69  58 E3        29.99R
TROY           CLOUDY    83  71  67 S10       30.03R
KINSTON*       NOT AVBL
GENEVA*          N/A     81  72  74 CALM      30.03R
ASHFORD*         N/A     81  72  74 S8        30.00R
DOTHAN         CLOUDY    78  70  76 SE5       30.07R
PANAMA CITY    CLOUDY    82  75  79 S3        30.02R

$$



USA.gov is the U.S. government's official web portal to all federal, state and local government web resources and services.